Погода в Севрюково

Россия / Белгородская область     50°36′47″N   36°45′58″E
темп.,
°C
ветер,
м/с
пор.,
м/с
влажн.,
%
обл.,
%
осадки,
мм/ч
давл.,
гПа
погр.,
м
7 марта, вс
вс700:00−4зсз477751 0.0 1022739
03:00−4зсз467975 0.4 1022737
06:00−4з587697 0.1 1020616
09:00−3зюз7116051 0.1 1019946
12:00−1зюз9134498 0.0 10171128
15:00+1зюз11164699 0.0 10131425
18:000зюз10177198 0.0 10101374
21:00−1зюз10168698 0.1 10091091
8 марта, пн
пн800:00−1зюз91691100 0.3 1009980
03:00−1зюз71390100 0.4 1008827
06:00−1зюз71292100 0.4 1007792
09:00−1зюз81287100 0.6 1007905
12:00+1з71069100 0.4 10081222
15:00+2зсз7958100 0.6 10091503
18:00−1зсз486895 0.1 1009474
21:00−2зсз388193 0.1 1011464
9 марта, вт
вт900:00−3зсз368435 0.0 1011393
03:00−3зсз358457 0.0 1012440
06:00−4сз478782 0.0 1013457
09:00−6сз687176 0.1 1015649
12:00−4сз676384 0.0 10161018
15:00−4ссз675991 0.1 10181184
18:00−6ссз576499 0.0 1020954
21:00−7ссз576796 0.0 1023848
10 марта, ср
ср1000:00−7сз467098 0.0 1024849
03:00−8сз357169 0.0 1025519
06:00−9сз24770 0.0 1026323
09:00−8сз226723 0.0 1026370
12:00−5сз224774 0.0 1026735
15:00−3з234185 0.0 10251045
18:00−3зсз234557 0.0 1024674
21:00−4ссз125629 0.0 102592
11 марта, чт
чт1100:00−5сз116116 0.0 102532
03:00−5с237042 0.0 1026140
06:00−6ссв237741 0.0 1026140
09:00−6в457543 0.0 1028358
12:00−5в446050 0.0 1028609
15:00−3в335572 0.0 1028870
18:00−5в456197 0.0 1028626
21:00−5вюв465883 0.0 1030523